Location: San Francisco
(37.7790°N, 122.4199°W)
Time: 06:43:40
(UTC-07:00)

ISS - Visible Passes

Search period start: 20 May 2022 00:00
Search period end: 30 May 2022 00:00
Orbit: 414 x 421 km, 51.6° (Epoch: 20 May)

Date Brightness Start Highest point End Pass type
(mag) Time Alt. Az. Time Alt. Az. Time Alt. Az.
20 May -0.5 21:16:50 10° NW 21:17:54 11° NNW 21:18:57 10° N visible
21 May -0.3 00:31:34 10° NNW 00:31:55 12° NNW 00:31:55 12° NNW visible
21 May -0.7 23:44:01 10° N 23:45:26 13° NNE 23:45:26 13° NNE visible
22 May -0.6 22:56:47 10° N 22:57:26 10° NNE 22:58:05 10° NNE visible
23 May -0.3 00:31:50 10° NW 00:31:52 10° NW 00:31:52 10° NW visible
23 May -0.9 23:44:02 10° NNW 23:45:25 18° N 23:45:25 18° N visible
24 May -1.3 22:56:18 10° NNW 22:58:37 17° NNE 22:58:57 17° NNE visible
25 May -1.0 22:08:41 10° N 22:10:19 13° NNE 22:11:58 10° NE visible
25 May -1.0 23:44:20 10° NW 23:45:24 19° NW 23:45:24 19° NW visible
26 May -0.8 21:21:27 10° N 21:21:57 10° NNE 21:22:29 10° NNE visible
26 May -2.2 22:56:24 10° NW 22:58:58 33° N 22:58:58 33° N visible
27 May -1.9 22:08:32 10° NNW 22:11:18 23° NNE 22:12:33 19° ENE visible
27 May -0.8 23:45:00 10° WNW 23:45:27 13° WNW 23:45:27 13° WNW visible
28 May -1.4 21:20:44 10° NNW 21:22:59 17° NNE 21:25:14 10° ENE visible
28 May -2.5 22:56:45 10° NW 22:59:03 40° WNW 22:59:03 40° WNW visible
29 May -3.4 22:08:38 10° NW 22:11:57 57° NE 22:12:40 45° E visible
